Time,TemperatureF,DewpointF,PressureIn,WindDirection,WindDirectionDegrees,WindSpeedMPH,WindSpeedGustMPH,Humidity,HourlyPrecipIn,Conditions,Clouds,dailyrainin,SoftwareType,DateUTC
2013-07-03 00:04:00,63.4,58.5,30.04,SE,135,0.0,1.0,84,0.00,,SKC,0.00,VWS V12.07,2013-07-03 05:04:00,
2013-07-03 00:10:00,63.3,58.4,30.04,SE,145,1.0,2.0,84,0.00,,SKC,0.00,VWS V12.07,2013-07-03 05:10:00,
2013-07-03 00:17:00,63.4,58.2,30.04,South,175,0.0,2.0,83,0.00,,SKC,0.00,VWS V12.07,2013-07-03 05:17:00,
2013-07-03 00:20:00,63.4,58.2,30.04,SE,134,0.0,2.0,83,0.00,,SKC,0.00,VWS V12.07,2013-07-03 05:20:00,
2013-07-03 00:24:00,63.3,58.1,30.04,SE,141,0.0,2.0,83,0.00,,SKC,0.00,VWS V12.07,2013-07-03 05:24:00,
2013-07-03 00:30:00,63.2,58.0,30.04,SE,141,0.0,2.0,83,0.00,,SKC,0.00,VWS V12.07,2013-07-03 05:30:00,
2013-07-03 00:37:00,63.1,57.9,30.04,SE,141,0.0,0.0,83,0.00,,SKC,0.00,VWS V12.07,2013-07-03 05:37:00,
2013-07-03 00:44:00,62.9,58.0,30.04,SE,141,0.0,0.0,84,0.00,,SKC,0.00,VWS V12.07,2013-07-03 05:44:00,
2013-07-03 00:50:00,63.0,58.1,30.04,SE,141,0.0,0.0,84,0.00,,SKC,0.00,VWS V12.07,2013-07-03 05:50:00,
2013-07-03 01:01:00,63.3,58.1,30.04,SSE,148,2.0,2.0,83,0.00,,SKC,0.00,VWS V12.07,2013-07-03 06:01:00,
2013-07-03 01:04:00,63.5,57.9,30.04,SE,145,0.0,3.0,82,0.00,,SKC,0.00,VWS V12.07,2013-07-03 06:04:00,
2013-07-03 01:10:00,63.6,58.0,30.04,SE,135,1.0,3.0,82,0.00,,SKC,0.00,VWS V12.07,2013-07-03 06:10:00,
2013-07-03 01:17:00,63.5,58.2,30.04,SE,136,0.0,3.0,83,0.00,,SKC,0.00,VWS V12.07,2013-07-03 06:17:00,
2013-07-03 01:20:00,63.4,58.2,30.04,SE,135,0.0,3.0,83,0.00,,SKC,0.00,VWS V12.07,2013-07-03 06:20:00,
2013-07-03 01:24:00,63.3,58.1,30.04,SE,135,0.0,3.0,83,0.00,,SKC,0.00,VWS V12.07,2013-07-03 06:24:00,
2013-07-03 01:27:00,63.3,58.1,30.04,SE,136,0.0,3.0,83,0.00,,SKC,0.00,VWS V12.07,2013-07-03 06:27:00,
2013-07-03 01:37:00,63.2,58.3,30.03,SSE,150,0.0,0.0,84,0.00,,SKC,0.00,VWS V12.07,2013-07-03 06:37:00,
2013-07-03 01:44:00,63.2,58.3,30.03,SSE,149,0.0,0.0,84,0.00,,SKC,0.00,VWS V12.07,2013-07-03 06:44:00,
2013-07-03 01:49:00,63.2,58.3,30.03,South,190,0.0,1.0,84,0.00,,SKC,0.00,VWS V12.07,2013-07-03 06:49:00,
2013-07-03 01:53:00,63.2,58.0,30.03,South,190,0.0,1.0,83,0.00,,SKC,0.00,VWS V12.07,2013-07-03 06:53:00,
2013-07-03 01:59:00,63.1,58.2,30.03,South,190,0.0,1.0,84,0.00,,SKC,0.00,VWS V12.07,2013-07-03 06:59:00,
2013-07-03 02:06:00,63.0,58.1,30.03,South,188,0.0,0.0,84,0.00,,SKC,0.00,VWS V12.07,2013-07-03 07:06:00,
2013-07-03 02:13:00,62.7,57.8,30.03,South,188,0.0,0.0,84,0.00,,SKC,0.00,VWS V12.07,2013-07-03 07:13:00,
2013-07-03 02:20:00,62.5,57.6,30.03,SSW,197,0.0,0.0,84,0.00,,SKC,0.00,VWS V12.07,2013-07-03 07:20:00,
2013-07-03 02:26:00,62.3,57.7,30.03,South,189,0.0,1.0,85,0.00,,SKC,0.00,VWS V12.07,2013-07-03 07:26:00,
2013-07-03 02:33:00,62.1,57.5,30.03,South,177,0.0,1.0,85,0.00,,SKC,0.00,VWS V12.07,2013-07-03 07:33:00,
2013-07-03 02:39:00,61.9,57.7,30.03,South,177,0.0,1.0,86,0.00,,SKC,0.00,VWS V12.07,2013-07-03 07:39:00,
2013-07-03 02:50:00,61.5,57.3,30.03,SE,134,0.0,1.0,86,0.00,,SKC,0.00,VWS V12.07,2013-07-03 07:50:00,
2013-07-03 02:53:00,61.4,57.2,30.03,South,169,1.0,1.0,86,0.00,,SKC,0.00,VWS V12.07,2013-07-03 07:53:00,
2013-07-03 03:00:00,61.4,57.2,30.03,South,174,0.0,1.0,86,0.00,,SKC,0.00,VWS V12.07,2013-07-03 08:00:00,
2013-07-03 03:04:00,61.4,57.2,30.03,South,174,0.0,1.0,86,0.00,,SKC,0.00,VWS V12.07,2013-07-03 08:04:00,
2013-07-03 03:10:00,61.3,57.1,30.03,South,174,0.0,1.0,86,0.00,,SKC,0.00,VWS V12.07,2013-07-03 08:10:00,
2013-07-03 03:17:00,61.1,56.9,30.03,SE,141,2.0,2.0,86,0.00,,SKC,0.00,VWS V12.07,2013-07-03 08:17:00,
2013-07-03 03:34:00,60.1,56.8,30.03,SE,138,1.0,3.0,89,0.00,,SKC,0.00,VWS V12.07,2013-07-03 08:34:00,
2013-07-03 03:40:00,59.7,56.8,30.03,SE,141,2.0,3.0,90,0.00,,SKC,0.00,VWS V12.07,2013-07-03 08:40:00,
2013-07-03 03:44:00,59.6,57.0,30.03,ESE,122,4.0,4.0,91,0.00,,SKC,0.00,VWS V12.07,2013-07-03 08:44:00,
2013-07-03 03:47:00,59.5,56.9,30.03,SE,142,2.0,4.0,91,0.00,,SKC,0.00,VWS V12.07,2013-07-03 08:47:00,
2013-07-03 03:54:00,59.4,57.1,30.03,SE,139,0.0,4.0,92,0.00,,SKC,0.00,VWS V12.07,2013-07-03 08:54:00,
2013-07-03 03:56:00,59.3,57.0,30.03,SE,138,2.0,4.0,92,0.00,,SKC,0.00,VWS V12.07,2013-07-03 08:56:00,
2013-07-03 04:03:00,59.3,57.0,30.03,SE,142,1.0,2.0,92,0.00,,SKC,0.00,VWS V12.07,2013-07-03 09:03:00,
2013-07-03 04:10:00,59.4,57.1,30.04,SE,139,0.0,3.0,92,0.00,,SKC,0.00,VWS V12.07,2013-07-03 09:10:00,
2013-07-03 04:17:00,59.4,57.1,30.03,SE,141,0.0,3.0,92,0.00,,SKC,0.00,VWS V12.07,2013-07-03 09:17:00,
2013-07-03 04:24:00,59.3,57.0,30.03,SE,135,1.0,3.0,92,0.00,,SKC,0.00,VWS V12.07,2013-07-03 09:24:00,
2013-07-03 04:34:00,59.3,57.0,30.03,South,183,0.0,1.0,92,0.00,,SKC,0.00,VWS V12.07,2013-07-03 09:34:00,
2013-07-03 04:40:00,59.2,56.9,30.03,SE,138,0.0,1.0,92,0.00,,SKC,0.00,VWS V12.07,2013-07-03 09:40:00,
2013-07-03 04:47:00,59.2,56.9,30.03,SE,136,0.0,2.0,92,0.00,,SKC,0.00,VWS V12.07,2013-07-03 09:47:00,
2013-07-03 04:54:00,59.2,56.9,30.04,SE,134,0.0,2.0,92,0.00,,SKC,0.00,VWS V12.07,2013-07-03 09:54:00,
2013-07-03 05:00:00,59.1,56.8,30.04,SE,134,0.0,2.0,92,0.00,,SKC,0.00,VWS V12.07,2013-07-03 10:00:00,
2013-07-03 05:04:00,59.0,57.0,30.03,SE,134,0.0,0.0,93,0.00,,SKC,0.00,VWS V12.07,2013-07-03 10:04:00,
2013-07-03 05:09:00,59.0,57.0,30.04,SSE,155,0.0,0.0,93,0.00,,SKC,0.00,VWS V12.07,2013-07-03 10:09:00,
2013-07-03 05:17:00,58.9,56.9,30.04,SSE,152,0.0,0.0,93,0.00,,SKC,0.00,VWS V12.07,2013-07-03 10:17:00,
2013-07-03 05:24:00,58.8,56.8,30.04,SSE,152,0.0,0.0,93,0.00,,SKC,0.00,VWS V12.07,2013-07-03 10:24:00,
2013-07-03 05:27:00,58.8,56.8,30.04,SSE,153,0.0,0.0,93,0.00,,SKC,0.00,VWS V12.07,2013-07-03 10:27:00,
2013-07-03 05:33:00,58.7,56.7,30.04,SSE,153,0.0,0.0,93,0.00,,SKC,0.00,VWS V12.07,2013-07-03 10:33:00,
2013-07-03 05:40:00,58.5,56.5,30.04,SSE,153,0.0,0.0,93,0.00,,SKC,0.00,VWS V12.07,2013-07-03 10:40:00,
2013-07-03 05:47:00,58.5,56.5,30.04,SSE,152,0.0,0.0,93,0.00,,SKC,0.00,VWS V12.07,2013-07-03 10:47:00,
2013-07-03 05:54:00,58.5,56.5,30.04,SSE,152,0.0,0.0,93,0.00,,SKC,0.00,VWS V12.07,2013-07-03 10:54:00,
2013-07-03 05:57:00,58.5,56.5,30.04,SSE,150,0.0,0.0,93,0.00,,SKC,0.00,VWS V12.07,2013-07-03 10:57:00,
2013-07-03 06:03:00,58.4,56.4,30.05,SSE,152,0.0,0.0,93,0.00,,SKC,0.00,VWS V12.07,2013-07-03 11:03:00,
2013-07-03 06:10:00,58.0,56.0,30.05,SSE,150,0.0,0.0,93,0.00,,SKC,0.00,VWS V12.07,2013-07-03 11:10:00,
2013-07-03 06:19:00,57.9,56.2,30.05,ESE,115,0.0,0.0,94,0.00,,SKC,0.00,VWS V12.07,2013-07-03 11:19:00,
2013-07-03 06:25:00,58.1,56.4,30.05,SE,130,0.0,0.0,94,0.00,,SKC,0.00,VWS V12.07,2013-07-03 11:25:00,
2013-07-03 06:32:00,58.2,56.5,30.05,SE,142,0.0,0.0,94,0.00,,SKC,0.00,VWS V12.07,2013-07-03 11:32:00,
2013-07-03 06:38:00,58.5,56.5,30.05,SE,132,0.0,2.0,93,0.00,,SKC,0.00,VWS V12.07,2013-07-03 11:38:00,
2013-07-03 06:45:00,59.1,57.1,30.05,South,184,0.0,2.0,93,0.00,,SKC,0.00,VWS V12.07,2013-07-03 11:45:00,
2013-07-03 06:49:00,59.4,57.1,30.05,South,184,0.0,2.0,92,0.00,,SKC,0.00,VWS V12.07,2013-07-03 11:49:00,
2013-07-03 06:55:00,59.7,57.1,30.05,South,184,0.0,2.0,91,0.00,,SKC,0.00,VWS V12.07,2013-07-03 11:55:00,
2013-07-03 07:02:00,59.8,57.2,30.06,South,184,0.0,0.0,91,0.00,,SKC,0.00,VWS V12.07,2013-07-03 12:02:00,
2013-07-03 07:05:00,59.9,57.3,30.06,South,184,0.0,0.0,91,0.00,,SKC,0.00,VWS V12.07,2013-07-03 12:05:00,
2013-07-03 07:14:00,60.1,57.5,30.06,SSE,155,0.0,1.0,91,0.00,,SKC,0.00,VWS V12.07,2013-07-03 12:14:00,
2013-07-03 07:22:00,61.0,58.0,30.06,SSE,148,0.0,1.0,90,0.00,,SKC,0.00,VWS V12.07,2013-07-03 12:22:00,
2013-07-03 07:25:00,61.9,58.9,30.06,SSE,148,0.0,1.0,90,0.00,,SKC,0.00,VWS V12.07,2013-07-03 12:25:00,
2013-07-03 07:29:00,62.9,59.3,30.06,SSE,150,0.0,1.0,88,0.00,,SKC,0.00,VWS V12.07,2013-07-03 12:29:00,
2013-07-03 07:35:00,64.0,59.4,30.06,SSW,204,0.0,3.0,85,0.00,,SKC,0.00,VWS V12.07,2013-07-03 12:35:00,
2013-07-03 07:42:00,65.2,59.6,30.06,SE,133,1.0,3.0,82,0.00,,SKC,0.00,VWS V12.07,2013-07-03 12:42:00,
2013-07-03 07:49:00,65.8,59.8,30.05,SE,130,1.0,3.0,81,0.00,,SKC,0.00,VWS V12.07,2013-07-03 12:49:00,
2013-07-03 07:59:00,66.3,60.0,30.05,SE,134,1.0,3.0,80,0.00,,SKC,0.00,VWS V12.07,2013-07-03 12:59:00,
2013-07-03 08:05:00,67.0,60.6,30.06,SSW,200,2.0,2.0,80,0.00,,SKC,0.00,VWS V12.07,2013-07-03 13:05:00,
2013-07-03 08:13:00,67.7,61.0,30.06,ESE,108,0.0,2.0,79,0.00,,SKC,0.00,VWS V12.07,2013-07-03 13:13:00,
2013-07-03 08:20:00,68.1,61.0,30.06,SSE,164,0.0,2.0,78,0.00,,SKC,0.00,VWS V12.07,2013-07-03 13:20:00,
2013-07-03 08:28:00,68.9,61.4,30.06,SW,228,2.0,3.0,77,0.00,,SKC,0.00,VWS V12.07,2013-07-03 13:28:00,
2013-07-03 08:35:00,68.8,61.3,30.06,WSW,258,0.0,2.0,77,0.00,,SKC,0.00,VWS V12.07,2013-07-03 13:35:00,
2013-07-03 08:38:00,68.6,61.8,30.06,NNW,333,0.0,2.0,79,0.00,,SKC,0.00,VWS V12.07,2013-07-03 13:38:00,
2013-07-03 08:49:00,70.2,63.0,30.06,SSE,165,0.0,2.0,78,0.00,,SKC,0.00,VWS V12.07,2013-07-03 13:49:00,
2013-07-03 08:54:00,70.7,62.4,30.06,SE,134,2.0,3.0,75,0.00,,SKC,0.00,VWS V12.07,2013-07-03 13:54:00,
2013-07-03 09:05:00,70.6,62.3,30.06,SW,221,0.0,3.0,75,0.00,,SKC,0.00,VWS V12.07,2013-07-03 14:05:00,
2013-07-03 09:12:00,71.4,63.1,30.06,NNW,347,0.0,3.0,75,0.00,,SKC,0.00,VWS V12.07,2013-07-03 14:12:00,
2013-07-03 09:15:00,71.7,62.6,30.06,ESE,107,2.0,3.0,73,0.00,,SKC,0.00,VWS V12.07,2013-07-03 14:15:00,
2013-07-03 09:22:00,71.8,62.7,30.06,SW,216,0.0,3.0,73,0.00,,SKC,0.00,VWS V12.07,2013-07-03 14:22:00,
2013-07-03 09:30:00,72.0,62.1,30.06,West,267,0.0,3.0,71,0.00,,SKC,0.00,VWS V12.07,2013-07-03 14:30:00,
2013-07-03 09:41:00,72.6,62.7,30.06,NW,312,0.0,2.0,71,0.00,,SKC,0.00,VWS V12.07,2013-07-03 14:41:00,
2013-07-03 09:47:00,72.5,62.2,30.05,NW,312,0.0,2.0,70,0.00,,SKC,0.00,VWS V12.07,2013-07-03 14:47:00,
2013-07-03 09:54:00,73.5,64.3,30.06,South,183,0.0,4.0,73,0.00,,SKC,0.00,VWS V12.07,2013-07-03 14:54:00,
2013-07-03 09:59:00,74.5,63.7,30.05,North,355,0.0,4.0,69,0.00,,SKC,0.00,VWS V12.07,2013-07-03 14:59:00,
2013-07-03 10:09:00,75.2,61.3,30.06,SW,226,1.0,2.0,62,0.00,,SKC,0.00,VWS V12.07,2013-07-03 15:09:00,
2013-07-03 10:17:00,75.7,59.9,30.05,NW,316,0.0,2.0,58,0.00,,SKC,0.00,VWS V12.07,2013-07-03 15:17:00,
2013-07-03 10:20:00,75.6,60.8,30.05,NW,318,0.0,2.0,60,0.00,,SKC,0.00,VWS V12.07,2013-07-03 15:20:00,
2013-07-03 10:27:00,75.7,60.4,30.05,NW,323,1.0,2.0,59,0.00,,SKC,0.00,VWS V12.07,2013-07-03 15:27:00,
2013-07-03 10:34:00,75.6,59.8,30.06,NW,323,1.0,3.0,58,0.00,,SKC,0.00,VWS V12.07,2013-07-03 15:34:00,
2013-07-03 10:37:00,75.7,59.4,30.06,NNE,16,0.0,3.0,57,0.00,,SKC,0.00,VWS V12.07,2013-07-03 15:37:00,
2013-07-03 10:44:00,76.3,60.5,30.05,ENE,62,0.0,3.0,58,0.00,,SKC,0.00,VWS V12.07,2013-07-03 15:44:00,
2013-07-03 10:51:00,77.5,62.1,30.05,WNW,290,1.0,3.0,59,0.00,,SKC,0.00,VWS V12.07,2013-07-03 15:51:00,
2013-07-03 10:59:00,78.2,62.2,30.05,ESE,110,1.0,3.0,58,0.00,,SKC,0.00,VWS V12.07,2013-07-03 15:59:00,
2013-07-03 11:10:00,77.7,61.3,30.05,WSW,253,0.0,2.0,57,0.00,,SKC,0.00,VWS V12.07,2013-07-03 16:10:00,
2013-07-03 11:14:00,77.2,60.8,30.05,WNW,293,0.0,2.0,57,0.00,,SKC,0.00,VWS V12.07,2013-07-03 16:14:00,
2013-07-03 11:19:00,76.5,61.6,30.05,West,278,0.0,2.0,60,0.00,,SKC,0.00,VWS V12.07,2013-07-03 16:19:00,
2013-07-03 11:24:00,76.5,62.1,30.05,West,276,0.0,2.0,61,0.00,,SKC,0.00,VWS V12.07,2013-07-03 16:24:00,
2013-07-03 11:34:00,77.0,60.6,30.05,SSW,200,0.0,2.0,57,0.00,,SKC,0.00,VWS V12.07,2013-07-03 16:34:00,
2013-07-03 11:44:00,78.1,61.6,30.05,North,352,0.0,2.0,57,0.00,,SKC,0.00,VWS V12.07,2013-07-03 16:44:00,
2013-07-03 11:49:00,78.4,61.9,30.05,NE,39,0.0,3.0,57,0.00,,SKC,0.00,VWS V12.07,2013-07-03 16:49:00,
2013-07-03 11:56:00,78.2,62.2,30.05,NNE,15,1.0,3.0,58,0.00,,SKC,0.00,VWS V12.07,2013-07-03 16:56:00,
2013-07-03 12:04:00,78.6,61.6,30.04,SE,136,2.0,5.0,56,0.00,,SKC,0.00,VWS V12.07,2013-07-03 17:04:00,
2013-07-03 12:09:00,79.1,62.6,30.04,ESE,113,4.0,5.0,57,0.00,,SKC,0.00,VWS V12.07,2013-07-03 17:09:00,
2013-07-03 12:16:00,79.6,63.0,30.04,SSE,160,1.0,5.0,57,0.00,,SKC,0.00,VWS V12.07,2013-07-03 17:16:00,
2013-07-03 12:24:00,80.2,61.5,30.04,ENE,70,2.0,5.0,53,0.00,,SKC,0.00,VWS V12.07,2013-07-03 17:24:00,
2013-07-03 12:36:00,79.5,60.3,30.04,South,184,0.0,8.0,52,0.00,,SKC,0.00,VWS V12.07,2013-07-03 17:36:00,
2013-07-03 12:44:00,79.7,62.1,30.04,WNW,285,0.0,10.0,55,0.00,,SKC,0.00,VWS V12.07,2013-07-03 17:44:00,
2013-07-03 12:51:00,80.3,61.6,30.04,West,263,2.0,10.0,53,0.00,,SKC,0.00,VWS V12.07,2013-07-03 17:51:00,
2013-07-03 12:59:00,81.1,60.7,30.04,SW,236,1.0,10.0,50,0.00,,SKC,0.00,VWS V12.07,2013-07-03 17:59:00,
2013-07-03 13:04:00,81.4,60.4,30.04,WNW,291,3.0,3.0,49,0.00,,SKC,0.00,VWS V12.07,2013-07-03 18:04:00,
2013-07-03 13:09:00,81.2,59.7,30.03,SSW,210,1.0,4.0,48,0.00,,SKC,0.00,VWS V12.07,2013-07-03 18:09:00,
2013-07-03 13:14:00,81.0,60.6,30.03,SSW,203,0.0,5.0,50,0.00,,SKC,0.00,VWS V12.07,2013-07-03 18:14:00,
2013-07-03 13:24:00,80.4,58.9,30.03,North,349,3.0,5.0,48,0.00,,SKC,0.00,VWS V12.07,2013-07-03 18:24:00,
2013-07-03 13:31:00,80.7,59.8,30.03,North,5,3.0,3.0,49,0.00,,SKC,0.00,VWS V12.07,2013-07-03 18:31:00,
2013-07-03 13:39:00,81.0,61.7,30.03,West,266,2.0,6.0,52,0.00,,SKC,0.00,VWS V12.07,2013-07-03 18:39:00,
2013-07-03 13:49:00,82.1,61.6,30.02,SSE,148,1.0,6.0,50,0.00,,SKC,0.00,VWS V12.07,2013-07-03 18:49:00,
2013-07-03 13:54:00,82.0,61.0,30.02,South,169,1.0,6.0,49,0.00,,SKC,0.00,VWS V12.07,2013-07-03 18:54:00,
2013-07-03 13:59:00,82.3,60.1,30.02,SE,128,0.0,6.0,47,0.00,,SKC,0.00,VWS V12.07,2013-07-03 18:59:00,
2013-07-03 14:09:00,82.3,60.1,30.02,SSW,195,1.0,3.0,47,0.00,,SKC,0.00,VWS V12.07,2013-07-03 19:09:00,
2013-07-03 14:14:00,82.2,60.0,30.02,SE,125,1.0,4.0,47,0.00,,SKC,0.00,VWS V12.07,2013-07-03 19:14:00,
2013-07-03 14:21:00,82.2,60.6,30.02,West,277,0.0,4.0,48,0.00,,SKC,0.00,VWS V12.07,2013-07-03 19:21:00,
2013-07-03 14:29:00,82.5,61.4,30.01,SW,231,2.0,5.0,49,0.00,,SKC,0.00,VWS V12.07,2013-07-03 19:29:00,
2013-07-03 14:44:00,82.0,62.7,30.01,SE,145,0.0,7.0,52,0.00,,SKC,0.00,VWS V12.07,2013-07-03 19:44:00,
2013-07-03 14:54:00,81.9,64.7,30.01,SE,138,0.0,7.0,56,0.00,,SKC,0.00,VWS V12.07,2013-07-03 19:54:00,
2013-07-03 14:59:00,82.3,61.8,30.01,NNE,21,0.0,7.0,50,0.00,,SKC,0.00,VWS V12.07,2013-07-03 19:59:00,
2013-07-03 15:09:00,82.0,61.0,30.01,NNW,344,1.0,4.0,49,0.00,,SKC,0.00,VWS V12.07,2013-07-03 20:09:00,
2013-07-03 15:19:00,83.8,60.8,30.01,SE,125,0.0,5.0,46,0.00,,SKC,0.00,VWS V12.07,2013-07-03 20:19:00,
2013-07-03 15:25:00,83.9,60.9,30.00,SE,141,2.0,5.0,46,0.00,,SKC,0.00,VWS V12.07,2013-07-03 20:25:00,
2013-07-03 15:34:00,84.6,62.2,30.00,NW,315,1.0,3.0,47,0.00,,SKC,0.00,VWS V12.07,2013-07-03 20:34:00,
2013-07-03 15:39:00,85.1,61.4,30.00,WNW,297,2.0,4.0,45,0.00,,SKC,0.00,VWS V12.07,2013-07-03 20:39:00,
2013-07-03 15:49:00,83.8,61.4,30.00,SSE,159,4.0,5.0,47,0.00,,SKC,0.00,VWS V12.07,2013-07-03 20:49:00,
2013-07-03 15:59:00,83.7,63.7,30.00,South,188,2.0,5.0,51,0.00,,SKC,0.00,VWS V12.07,2013-07-03 20:59:00,
2013-07-03 16:09:00,85.2,63.9,30.00,SE,132,2.0,4.0,49,0.00,,SKC,0.00,VWS V12.07,2013-07-03 21:09:00,
2013-07-03 16:16:00,84.3,63.1,30.00,SSE,163,6.0,6.0,49,0.00,,SKC,0.00,VWS V12.07,2013-07-03 21:16:00,
2013-07-03 16:22:00,84.1,62.9,30.00,SE,141,2.0,6.0,49,0.00,,SKC,0.00,VWS V12.07,2013-07-03 21:22:00,
2013-07-03 16:23:00,84.4,64.3,30.00,SW,229,1.0,6.0,51,0.00,,SKC,0.00,VWS V12.07,2013-07-03 21:23:00,
2013-07-03 16:30:00,84.4,64.3,30.00,SW,229,1.0,6.0,51,0.00,,SKC,0.00,VWS V12.07,2013-07-03 21:30:00,
2013-07-03 17:40:00,81.4,64.2,29.98,SE,126,0.0,7.0,56,0.00,,SKC,0.00,VWS V12.07,2013-07-03 22:40:00,
2013-07-03 17:54:00,82.1,64.3,29.98,East,100,3.0,7.0,55,0.00,,SKC,0.00,VWS V12.07,2013-07-03 22:54:00,
2013-07-03 18:14:00,81.0,63.8,29.98,SE,130,2.0,8.0,56,0.00,,SKC,0.00,VWS V12.07,2013-07-03 23:14:00,
2013-07-03 18:24:00,80.8,64.2,29.98,ESE,115,4.0,9.0,57,0.00,,SKC,0.00,VWS V12.07,2013-07-03 23:24:00,
2013-07-03 18:30:00,80.6,63.5,29.98,SE,127,2.0,9.0,56,0.00,,SKC,0.00,VWS V12.07,2013-07-03 23:30:00,
2013-07-03 18:39:00,80.4,63.8,29.98,ESE,119,3.0,9.0,57,0.00,,SKC,0.00,VWS V12.07,2013-07-03 23:39:00,
2013-07-03 18:49:00,80.2,64.6,29.98,SE,135,6.0,9.0,59,0.00,,SKC,0.00,VWS V12.07,2013-07-03 23:49:00,
2013-07-03 18:59:00,79.5,63.9,29.98,SE,132,3.0,9.0,59,0.00,,SKC,0.00,VWS V12.07,2013-07-03 23:59:00,
2013-07-03 19:09:00,79.2,64.6,29.98,South,177,4.0,5.0,61,0.00,,SKC,0.00,VWS V12.07,2013-07-04 00:09:00,
2013-07-03 19:20:00,79.0,64.9,29.99,South,174,2.0,5.0,62,0.00,,SKC,0.00,VWS V12.07,2013-07-04 00:20:00,
2013-07-03 19:27:00,79.0,64.9,29.99,SE,126,5.0,6.0,62,0.00,,SKC,0.00,VWS V12.07,2013-07-04 00:27:00,
2013-07-03 19:39:00,78.6,65.0,29.99,SE,125,1.0,4.0,63,0.00,,SKC,0.00,VWS V12.07,2013-07-04 00:39:00,
2013-07-03 19:46:00,78.0,64.4,29.99,SE,135,1.0,4.0,63,0.00,,SKC,0.00,VWS V12.07,2013-07-04 00:46:00,
2013-07-03 19:54:00,76.7,64.5,29.99,ESE,120,2.0,4.0,66,0.00,,SKC,0.00,VWS V12.07,2013-07-04 00:54:00,
2013-07-03 20:04:00,75.4,63.7,29.99,SE,134,1.0,3.0,67,0.00,,SKC,0.00,VWS V12.07,2013-07-04 01:04:00,
2013-07-03 20:10:00,74.9,63.6,29.99,SE,130,2.0,5.0,68,0.00,,SKC,0.00,VWS V12.07,2013-07-04 01:10:00,
2013-07-03 20:19:00,74.3,63.5,29.99,ESE,123,3.0,5.0,69,0.00,,SKC,0.00,VWS V12.07,2013-07-04 01:19:00,
2013-07-03 20:29:00,73.7,63.3,30.00,SE,131,2.0,5.0,70,0.00,,SKC,0.00,VWS V12.07,2013-07-04 01:29:00,
2013-07-03 20:34:00,73.5,63.5,30.00,SE,126,2.0,3.0,71,0.00,,SKC,0.00,VWS V12.07,2013-07-04 01:34:00,
2013-07-03 20:44:00,73.0,63.0,30.00,SE,139,2.0,4.0,71,0.00,,SKC,0.00,VWS V12.07,2013-07-04 01:44:00,
2013-07-03 20:54:00,72.6,63.1,30.00,SE,134,1.0,4.0,72,0.00,,SKC,0.00,VWS V12.07,2013-07-04 01:54:00,
2013-07-03 20:59:00,72.4,62.9,30.01,SE,138,1.0,4.0,72,0.00,,SKC,0.00,VWS V12.07,2013-07-04 01:59:00,
2013-07-03 21:04:00,72.2,63.1,30.01,SE,143,1.0,3.0,73,0.00,,SKC,0.00,VWS V12.07,2013-07-04 02:04:00,
2013-07-03 21:12:00,72.1,63.0,30.01,SE,139,2.0,3.0,73,0.00,,SKC,0.00,VWS V12.07,2013-07-04 02:12:00,
2013-07-03 21:24:00,72.0,63.3,30.01,SSE,162,0.0,3.0,74,0.00,,SKC,0.00,VWS V12.07,2013-07-04 02:24:00,
2013-07-03 21:32:00,71.7,63.7,30.03,WSW,257,2.0,5.0,76,0.00,,SKC,0.00,VWS V12.07,2013-07-04 02:32:00,
2013-07-03 21:40:00,71.3,63.3,30.04,NNE,30,2.0,5.0,76,0.00,,SKC,0.00,VWS V12.07,2013-07-04 02:40:00,
2013-07-03 21:49:00,71.0,61.9,30.04,SW,226,5.0,7.0,73,0.00,,SKC,0.00,VWS V12.07,2013-07-04 02:49:00,
2013-07-03 21:55:00,70.9,61.8,30.04,SSW,198,3.0,7.0,73,0.00,,SKC,0.00,VWS V12.07,2013-07-04 02:55:00,
2013-07-03 22:04:00,70.4,60.2,30.04,SE,125,1.0,5.0,70,0.00,,SKC,0.00,VWS V12.07,2013-07-04 03:04:00,
2013-07-03 22:09:00,70.1,59.9,30.04,SE,138,2.0,5.0,70,0.00,,SKC,0.00,VWS V12.07,2013-07-04 03:09:00,
2013-07-03 22:19:00,69.5,60.1,30.04,South,178,0.0,5.0,72,0.00,,SKC,0.00,VWS V12.07,2013-07-04 03:19:00,
2013-07-03 22:24:00,69.2,60.2,30.04,SE,135,0.0,5.0,73,0.00,,SKC,0.00,VWS V12.07,2013-07-04 03:24:00,
2013-07-03 22:29:00,68.8,60.6,30.04,SSE,155,0.0,5.0,75,0.00,,SKC,0.00,VWS V12.07,2013-07-04 03:29:00,
2013-07-03 22:37:00,68.3,60.8,30.04,West,264,0.0,1.0,77,0.00,,SKC,0.00,VWS V12.07,2013-07-04 03:37:00,
2013-07-03 22:44:00,67.9,60.8,30.03,West,265,0.0,1.0,78,0.00,,SKC,0.00,VWS V12.07,2013-07-04 03:44:00,
2013-07-03 22:54:00,67.2,60.5,30.02,SSE,148,0.0,1.0,79,0.00,,SKC,0.00,VWS V12.07,2013-07-04 03:54:00,
2013-07-03 23:04:00,66.5,60.5,30.02,SE,140,0.0,0.0,81,0.00,,SKC,0.00,VWS V12.07,2013-07-04 04:04:00,
2013-07-03 23:07:00,66.3,60.7,30.01,ESE,108,0.0,0.0,82,0.00,,SKC,0.00,VWS V12.07,2013-07-04 04:07:00,
2013-07-03 23:14:00,65.8,60.2,30.02,East,94,0.0,0.0,82,0.00,,SKC,0.00,VWS V12.07,2013-07-04 04:14:00,
2013-07-03 23:20:00,65.3,60.0,30.02,East,94,0.0,0.0,83,0.00,,SKC,0.00,VWS V12.07,2013-07-04 04:20:00,
2013-07-03 23:27:00,65.0,60.4,30.03,NNE,17,0.0,2.0,85,0.00,,SKC,0.00,VWS V12.07,2013-07-04 04:27:00,
2013-07-03 23:30:00,64.9,60.6,30.03,NNE,16,0.0,2.0,86,0.00,,SKC,0.00,VWS V12.07,2013-07-04 04:30:00,
2013-07-03 23:34:00,64.8,60.5,30.03,NNE,16,0.0,0.0,86,0.00,,SKC,0.00,VWS V12.07,2013-07-04 04:34:00,
2013-07-03 23:40:00,64.5,60.2,30.03,NNE,18,0.0,0.0,86,0.00,,SKC,0.00,VWS V12.07,2013-07-04 04:40:00,
2013-07-03 23:47:00,64.0,60.1,30.03,NNE,18,0.0,0.0,87,0.00,,SKC,0.00,VWS V12.07,2013-07-04 04:47:00,
2013-07-03 23:54:00,63.5,59.9,30.04,NNE,18,0.0,0.0,88,0.00,,SKC,0.00,VWS V12.07,2013-07-04 04:54:00,